NOAA NWS Hourly Roundups by Site

Regional Weather Roundup for Bismarck, ND

To Select Another Site Choose from List

Select Site:  

000
ASUS43 KBIS 222010
RWRBIS

NWR BROADCAST TEXT
NATIONAL WEATHER SERVICE BISMARCK ND
300 PM CDT WED SEP 22 2021

NOTE: "FAIR" INDICATES FEW OR NO CLOUDS BELOW 12,000 FEET WITH NO
SIGNIFICANT WEATHER AND/OR OBSTRUCTIONS TO VISIBILITY.


CITY           SKY/WX    TMP DP  RH WIND       PRES   REMARKS
WILLISTON      SUNNY     78  35  21 SW13G21   29.95F
MINOT          SUNNY     81  35  19 S12G23    29.95F
MINOT AFB      SUNNY     81  39  22 SW13      30.02
BISMARCK       SUNNY     79  30  16 S14G30    30.04F
DICKINSON      SUNNY     83  31  15 SW9G18    29.99F
GARRISON         N/A     78  37  22 S13       29.99F
HETTINGER ARPT SUNNY     84  28  13 SW12      30.04F
JAMESTOWN      SUNNY     75  42  30 S24G36    30.06F
CARRINGTON     FAIR      75  41  29 S18       30.06F
HAZEN          FAIR      81  37  21 S13       30.00F
MANDAN         SUNNY     75  46  35 S13       30.04F
OAKES          FAIR      73  43  33 S21       30.13F
RUGBY          FAIR      75  41  29 S12       29.99F
STANLEY        FAIR      81  36  19 S16       29.96F
TIOGA          FAIR      79  32  18 SW17G25   29.96F
WATFORD CITY   FAIR      82  34  17 VRB7G18   29.96F
$$

CITY           SKY/WX    TMP DP  RH WIND       PRES   REMARKS
GRAND FORKS    MOSUNNY   77  39  25 S21G31    30.05F
GRAND FORKS AF MOSUNNY   77  41  27 S24       30.04F
DEVILS LAKE    SUNNY     74  42  31 S14       30.02F
FARGO          SUNNY     75  39  27 S18G26    30.12F
CAVALIER       FAIR      77  41  27 MISG      30.00F
GRAFTON        FAIR      77  39  25 S21G29      N/A
GWINNER        SUNNY     73  39  29 SW21G28   30.13F
LANGDON        FAIR      75  41  29 S21G28    30.02F
ROLLA          FAIR      72  36  26 SW13G20   30.00F
WALHALLA       FAIR      77  77 100 SW14G21   29.99F
$$

CITY           SKY/WX    TMP DP  RH WIND       PRES   REMARKS
ABERDEEN       SUNNY     75  42  30 S18G32    30.14F
MOBRIDGE       SUNNY     76  45  33 S13G21    30.06F
BUFFALO          N/A     85  28  12 W12G21    30.02F
RAPID CITY     SUNNY     80  34  19 S13G20    30.10F
GLASGOW        SUNNY     85  32  15 SW10      29.90F
SIDNEY         SUNNY     81  41  24 S12       29.94F
WOLF POINT     SUNNY     83  33  16 SW8       29.91F
GLENDIVE       SUNNY     83  34  17 SW17G23   29.98F
MILES CITY     SUNNY     82  33  17 S8        29.99F
BAKER          SUNNY     80  32  17 W16       30.04F
$$

CITY           SKY/WX    TMP DP  RH WIND       PRES   REMARKS
BILLINGS       MOSUNNY   81  21  11 SW14      30.04F
GREAT FALLS    MOSUNNY   79  30  16 SW20G30   29.98F
REGINA         PTSUNNY   79  39  24 SW15G22   29.83F
ESTEVAN        SUNNY     81  36  19 S14G24    29.90F
$$



 

View Past Reports for Bismarck, ND.

Products Courtesy of NOAA-NWS
NWS Information Parsing Script by Ken True at Saratoga Weather - Script by SE Lincoln Weather.